Location: Cheyres
(46.8153°N, 6.7877°E)
Time: 15:21:10
(UTC+00:00)

Cosmos 990 Rocket - Pass Details

Date: 20 September 2021
Orbit: 746 x 769 km, 74.0° (Epoch: 18 October)

Event Time Altitude Azimuth Distance (km) Brightness Sun altitude
Exits shadow 22:37:44 16° 337° (NNW) 1,924 6.6 -41.3°
Drops below altitude 10° 22:39:25 10° 355° (N) 2,292 7.1 -41.4°
Sets 22:42:31 0° 13° (NNE) 3,226 7.9 -41.5°
